This is the latest recevied weather packets stored in our database for station/object DC7RY. If no packets are shown the sender has not sent any weather packets the latest 10 day(s).
| Time | Temp. | Humidity | Pressure | Rain* | Wind** | Luminosity | Snow |
|---|---|---|---|---|---|---|---|
| 1777381218 | 17.78° C | 40% | 1014.1 hPa | 0 mm | - | 380 W/m² | - |
| 1777380626 | 17.78° C | 41% | 1014.1 hPa | 0 mm | - | 361 W/m² | - |
| 1777380018 | 17.78° C | 41% | 1014.3 hPa | 0 mm | - | 151 W/m² | - |
| 1777379426 | 17.78° C | 41% | 1014.5 hPa | 0 mm | - | 132 W/m² | - |
| 1777378818 | 17.22° C | 41% | 1014.3 hPa | 0 mm | - | 218 W/m² | - |
| 1777378226 | 17.22° C | 41% | 1014.2 hPa | 0 mm | - | 100 W/m² | - |
| 1777377619 | 17.22° C | 41% | 1014.2 hPa | 0 mm | - | 80 W/m² | - |
| 1777377027 | 17.22° C | 41% | 1014.3 hPa | 0 mm | - | 94 W/m² | - |
| 1777376418 | 17.22° C | 39% | 1014.3 hPa | 0 mm | - | 108 W/m² | - |
| 1777375826 | 17.22° C | 40% | 1014.3 hPa | 0 mm | - | 150 W/m² | - |
| 1777375218 | 17.22° C | 41% | 1014.3 hPa | 0 mm | - | 130 W/m² | - |
| 1777374626 | 16.67° C | 41% | 1014.5 hPa | 0 mm | - | 185 W/m² | - |
| 1777374018 | 16.67° C | 40% | 1014.6 hPa | 0 mm | - | 334 W/m² | - |
| 1777373426 | 16.67° C | 41% | 1014.3 hPa | 0 mm | - | 322 W/m² | - |
| 1777372818 | 16.67° C | 42% | 1014.5 hPa | 0 mm | - | 349 W/m² | - |
| 1777372226 | 16.67° C | 40% | 1014.5 hPa | 0 mm | - | 350 W/m² | - |
| 1777371618 | 16.11° C | 40% | 1014.4 hPa | 0 mm | - | 340 W/m² | - |
| 1777371026 | 16.11° C | 40% | 1014.6 hPa | 0 mm | - | 242 W/m² | - |
| 1777370418 | 16.11° C | 41% | 1014.6 hPa | 0 mm | - | 172 W/m² | - |
| 1777369826 | 15.56° C | 40% | 1014.7 hPa | 0 mm | - | 138 W/m² | - |
| 1777369218 | 15.56° C | 41% | 1014.8 hPa | 0 mm | - | 146 W/m² | - |
| 1777368626 | 15.56° C | 41% | 1014.7 hPa | 0 mm | - | 118 W/m² | - |
| 1777368018 | 15.56° C | 44% | 1014.8 hPa | 0 mm | - | 113 W/m² | - |
| 1777367426 | 15° C | 43% | 1015 hPa | 0 mm | - | 164 W/m² | - |
| 1777366818 | 14.44° C | 43% | 1014.9 hPa | 0 mm | - | 151 W/m² | - |
* Rain latest hour (hover to see other rain measurements)
** Current wind speed in m/s (hover to see current wind gust speed)